Weather History for KWVI - February, 2013

Change the Weather History Date:

Tuesday, February 26, 2013

  Actual Average Record
Temperature  
Mean Temperature 50 °F 52 °F  
Max Temperature 65 °F 61 °F 77 °F (2002)
Min Temperature 35 °F 44 °F 32 °F (2011)
Degree Days  
Heating Degree Days 15    
Month to date heating degree days 416  
Since 1 July heating degree days 2146  
Cooling Degree Days 0    
Month to date cooling degree days 0  
Year to date cooling degree days 0  
Moisture  
Dew Point 36 °F    
Average Humidity 61    
Maximum Humidity 92    
Minimum Humidity 30    
Precipitation  
Precipitation 0.00 in - - ()
Month to date precipitation 0.47  
Year to date precipitation 1.15  
Since 1 July precipitation 12.09  
Sea Level Pressure  
Sea Level Pressure 30.18 in    
Wind  
Wind Speed 3 mph (SW)    
Max Wind Speed 9 mph    
Max Gust Speed 12 mph    
Visibility 10 miles    
Events      
T = Trace of Precipitation, MM = Missing Value Source: NWS Daily Summary

Daily Weather History Graph

Daily Weather History Graph

Search for Another Location

Airport or City:

Trip Planner

Search our weather history database for the weather conditions in past years. The results will help you decide how hot, cold, wet, or windy it might be!

Date:

Astronomy

Feb. 26, 2013 Rise Set
Actual Time 6:41 AM PST 5:58 PM PST
Civil Twilight 6:15 AM PST 6:24 PM PST
Nautical Twilight 5:45 AM PST 6:55 PM PST
Astronomical Twilight 5:15 AM PST 7:25 PM PST
Moon 7:17 PM PST (2/26) 6:49 AM PST (2/26)
Length of Visible Light 12h 09m
Length of Day
11h 17m
Full, 99% of the Moon is Illuminated
Feb 26
Full
Mar 4
Last Quarter
Mar 11
New
Mar 19
First Quarter
Mar 27
Full

Hourly Weather History & Observations

Time (PST) Temp. Windchill Dew Point Humidity Pressure Visibility Wind Dir Wind Speed Gust Speed Precip Events Conditions
12:53 AM 39.0 °F 35.7 °F 34.0 °F 82% 30.21 in 10.0 mi NW 4.6 mph - N/A   Clear
1:53 AM 39.0 °F 35.7 °F 34.0 °F 82% 30.20 in 10.0 mi NW 4.6 mph - N/A   Clear
2:53 AM 37.9 °F 34.4 °F 33.1 °F 83% 30.19 in 10.0 mi NW 4.6 mph - N/A   Clear
3:53 AM 37.0 °F 33.3 °F 32.0 °F 82% 30.17 in 10.0 mi WNW 4.6 mph - N/A   Clear
4:53 AM 37.0 °F - 33.1 °F 86% 30.16 in 10.0 mi Calm Calm - N/A   Clear
5:53 AM 36.0 °F - 33.1 °F 89% 30.17 in 10.0 mi Calm Calm - N/A   Clear
6:53 AM 37.0 °F 34.5 °F 34.0 °F 89% 30.19 in 10.0 mi Variable 3.5 mph - N/A   Clear
7:53 AM 42.1 °F - 36.0 °F 79% 30.19 in 10.0 mi Calm Calm - N/A   Clear
8:53 AM 48.0 °F - 39.0 °F 71% 30.19 in 10.0 mi ENE 3.5 mph - N/A   Clear
9:53 AM 54.0 °F - 37.9 °F 55% 30.19 in 10.0 mi East 6.9 mph - N/A   Clear
10:53 AM 57.9 °F - 36.0 °F 44% 30.19 in 10.0 mi Calm Calm - N/A   Clear
11:53 AM 61.0 °F - 37.9 °F 42% 30.17 in 10.0 mi Calm Calm - N/A   Clear
12:53 PM 62.1 °F - 37.0 °F 39% 30.16 in 10.0 mi South 5.8 mph - N/A   Clear
1:53 PM 64.9 °F - 32.0 °F 29% 30.14 in 10.0 mi South 5.8 mph - N/A   Clear
2:53 PM 62.1 °F - 36.0 °F 38% 30.13 in 10.0 mi SSW 6.9 mph - N/A   Clear
3:53 PM 63.0 °F - 34.0 °F 34% 30.12 in 10.0 mi South 5.8 mph - N/A   Clear
4:53 PM 60.1 °F - 32.0 °F 35% 30.13 in 10.0 mi South 6.9 mph - N/A   Clear
5:53 PM 55.0 °F - 43.0 °F 64% 30.14 in 10.0 mi East 3.5 mph - N/A   Clear
6:53 PM 53.1 °F - 43.0 °F 69% 30.16 in 10.0 mi Calm Calm - N/A   Clear
7:53 PM 46.0 °F 43.9 °F 42.1 °F 86% 30.18 in 10.0 mi SSW 4.6 mph - N/A   Clear
8:53 PM 46.9 °F - 41.0 °F 80% 30.20 in 10.0 mi Calm Calm - N/A   Clear
9:53 PM 46.0 °F - 36.0 °F 68% 30.21 in 10.0 mi Calm Calm - N/A   Clear
10:53 PM 43.0 °F 41.3 °F 34.0 °F 71% 30.22 in 10.0 mi North 3.5 mph - N/A   Clear
11:53 PM 42.1 °F 38.4 °F 33.1 °F 70% 30.22 in 10.0 mi NW 5.8 mph - N/A   Clear